Location: Country Club
(40.8392°N, 73.8197°W)
Time: 14:31:51
(UTC+00:00)

Daily predictions for brighter satellites

Satellite Brightness Start Highest point End
(mag) Time Altitude Azimuth Time Altitude Azimuth Time Altitude Azimuth
CZ-4B DEB 4.3 21:51:41 10° SSE 21:57:11 87° ENE 22:02:41 10° NNW
Cosmos 2333 Rocket 3.8 21:55:52 10° WSW 22:00:58 33° WNW 22:06:04 10° N
Cosmos 2184 Rocket 4.2 21:55:20 10° N 22:01:45 83° W 22:08:04 10° S
Envisat 3.1 21:59:13 10° SSE 22:04:17 89° WSW 22:09:24 10° NNW
Cosmos 1743 Rocket 3.7 22:01:05 10° N 22:05:35 86° W 22:10:00 10° S
USA 267 4.2 22:00:54 10° ENE 22:06:19 29° NNE 22:11:44 10° NW
BREEZE-M TANK 2.8 21:59:52 10° WNW 22:06:38 88° SSW 22:09:54 10° ESE
COSMOS 2428 4.1 22:01:23 10° SW 22:06:42 38° WNW 22:12:03 10° N
Lacrosse 5 rocket 2.5 22:04:03 10° S 22:06:59 22° SE 22:09:51 10° ENE
COSMO-SKYMED 1 4.0 22:04:14 10° NE 22:07:22 19° E 22:10:30 10° SE
Cosmos 1862 3.3 22:04:46 10° N 22:08:49 88° E 22:12:49 10° S
SL-24 R/B - RUBIN 2 4.3 22:03:42 10° NNW 22:09:57 68° NE 22:15:26 10° SE
Sich 1 3.5 22:07:15 10° N 22:11:23 38° ENE 22:15:26 10° SSE
NOAA 12 4.1 22:06:20 10° SSE 22:11:35 63° ENE 22:16:51 10° N
Okean-O 4.4 22:10:33 10° E 22:12:24 12° ENE 22:14:16 10° NE
Cosmos 2278 Rocket 2.2 22:07:19 10° NNW 22:13:03 89° ENE 22:18:43 10° SSE
GENESIS II 4.3 22:13:52 10° NNW 22:17:45 53° NE 22:21:33 10° SE
CZ-4C R/B 4.4 22:15:44 10° N 22:19:10 41° WNW 22:22:35 10° SW
AQUARIUS 4.1 22:16:05 10° SSE 22:20:32 69° ENE 22:25:02 10° N
Okean O Rocket 1.5 22:16:41 10° SSE 22:21:00 71° ENE 22:25:22 10° N
Cosmos 1151 Rocket 3.9 22:19:21 10° SSE 22:22:58 27° E 22:26:34 10° NNE
H-2A R/B 3.7 22:23:09 13° ENE 22:24:13 13° ENE 22:26:41 10° NNE
Radarsat Rocket 4.3 22:19:28 10° S 22:25:22 75° WSW 22:31:53 10° NNW
Cosmos 1805 Rocket 3.5 22:20:57 10° N 22:25:26 77° E 22:29:51 10° SSE
CZ-4 R/B 3.1 22:26:58 14° NE 22:26:58 14° NE 22:28:22 10° NNE
YAOGAN 6 3.5 22:22:50 10° S 22:26:25 54° W 22:30:00 10° NNW
Cosmos 2219 Rocket 4.2 22:22:42 10° WSW 22:27:09 24° NW 22:31:39 10° N
Cosmos 389 Rocket 2.3 22:24:33 10° S 22:27:56 70° E 22:31:21 10° NNE
Cosmos 1666 Rocket 3.9 22:27:38 10° N 22:31:48 41° ENE 22:36:00 10° SSE
USA 281 3.9 22:26:12 10° ESE 22:31:48 31° NE 22:37:25 10° N
Cosmos 1328 Rocket 4.3 22:28:54 10° SSE 22:32:39 30° E 22:36:26 10° NNE
CZ-4B R/B 3.3 22:28:54 10° S 22:34:15 77° WSW 22:39:35 10° NNW
Cosmos 1939 Rocket 3.3 22:32:18 10° SE 22:35:50 36° ENE 22:39:25 10° N
BREEZE-M DEB (TANK) 4.1 22:33:44 10° SSW 22:36:47 17° SSE 22:38:20 13° ESE
ISS -2.0 22:34:55 10° WNW 22:37:42 24° NNW 22:39:50 14° NNE
Cosmos 2237 Rocket 2.9 22:32:38 10° SW 22:38:07 54° WNW 22:43:38 10° NNE
NOAA 11 4.1 22:34:16 10° SSE 22:39:39 74° ENE 22:45:05 10° N
OE (NEXTSAT) 4.4 22:36:18 10° WSW 22:39:44 70° NNW 22:41:40 24° ENE
Cosmos 2218 Rocket 4.2 22:35:36 10° N 22:41:28 45° ENE 22:47:19 10° SSE
CORIOLIS 4.4 22:40:16 10° S 22:45:38 74° WSW 22:51:05 10° NNW
FengYun 1-2 T 4.3 22:44:13 10° SSE 22:49:47 86° WSW 22:55:20 10° NNW
CREW DRAGON DEMO-1 DEB 3.9 22:47:29 10° NW 22:50:06 27° NNE 22:50:09 27° NNE
H-2A R/B 3.8 22:46:31 10° N 22:50:14 31° WNW 22:53:59 10° SW
CZ-4B R/B 1.4 22:47:26 10° N 22:50:29 71° WNW 22:53:35 10° SSW
Cosmos 2366 rocket 4.1 22:44:47 10° N 22:50:49 51° ENE 22:56:46 10° SSE
Cosmos 1356 3.5 22:49:37 10° NNW 22:53:03 77° W 22:56:28 10° S
Cosmos 2369 Rocket 3.4 22:49:14 10° N 22:53:22 20° NE 22:53:22 20° NE
SKYMED 2 3.5 22:51:23 10° NNE 22:55:42 65° E 23:00:00 10° S
Abrixas rocket 3.8 22:53:43 10° W 22:56:07 27° SW 22:58:31 10° SSE
Cosmos 1633 Rocket 2.9 22:57:03 10° N 23:01:26 72° E 23:05:46 10° SSE
EO 1 Delta rocket 4.5 22:57:40 10° NNE 23:03:09 62° E 23:10:04 10° S
X-37B 2.4 23:02:20 10° SSW 23:04:30 20° SSE 23:04:30 20° SSE
Cosmos 1867 4.0 22:59:50 10° SW 23:05:12 62° NW 23:09:40 15° NNE
Cosmos 1606 4.4 23:04:25 10° SW 23:07:59 35° WNW 23:11:36 10° N
Cosmos 1538 Rocket 4.4 23:04:42 10° S 23:09:40 41° ESE 23:11:04 34° ENE
SAR-Lupe-4 3.5 23:08:16 21° N 23:10:34 85° WNW 23:14:08 10° SSW
Cosmos 1933 3.7 23:06:36 10° SSW 23:10:34 63° W 23:14:37 10° N
CZ-2C R/B 3.1 23:07:36 10° SSE 23:12:35 51° ENE 23:17:21 10° N
USA 215 3.5 23:12:52 20° NE 23:17:28 64° NW 23:23:54 10° WSW
Cosmos 1943 Rocket 2.3 23:12:15 10° NNW 23:17:36 46° ENE 23:19:12 36° ESE
SL-24 DEB 4.1 23:16:52 10° N 23:21:40 77° E 23:26:21 10° S
Cosmos 2297 3.6 23:15:59 10° NNW 23:21:42 86° ENE 23:27:25 10° SSE
Cosmos 1782 2.6 23:20:35 10° S 23:24:31 84° E 23:25:18 56° NNE
CZ-4 R/B 4.4 23:21:51 10° S 23:25:59 81° WSW 23:30:09 10° NNW
Meteor 1-4 Rocket 2.4 23:22:48 10° S 23:26:26 88° SW 23:26:26 88° SW
SL-16 R/B 2.6 23:21:17 10° SW 23:26:52 61° WNW 23:31:22 16° NNE
YAOGAN 1 3.3 23:30:24 38° N 23:30:24 38° N 23:33:11 10° N
BREEZE-M DEB (TANK) 3.3 23:20:49 10° SW 23:30:48 68° SSE 23:31:28 58° E
ERS-2 4.2 23:27:41 10° N 23:30:48 27° WNW 23:33:55 10° SW
Cosmos 1689 Rocket 3.4 23:32:45 38° WSW 23:32:45 38° WSW 23:34:56 10° SSW
Meteor 2-6 Rocket 4.5 23:27:08 10° SSE 23:31:53 45° ESE 23:31:53 45° ESE
Cosmos 2285 Rocket 4.0 23:27:11 10° NNW 23:33:37 85° WSW 23:39:57 10° SSE
PSLV R/B 4.2 23:32:06 32° N 23:33:52 65° WNW 23:37:51 10° SSW
Helios 1A Rocket 3.2 23:31:37 10° SSE 23:36:28 56° NNW 23:39:41 10° NNW
Nadezhda 3 Rocket 4.1 23:29:35 10° SSE 23:35:42 53° E 23:37:29 41° NE
Meteor 1-14 Rocket 4.2 23:30:20 10° N 23:36:17 74° E 23:42:16 10° SSE
ATLAS CENTAUR R/B 4.3 23:15:42 10° NW 23:36:23 76° NE 23:40:45 33° ESE
Cosmos 1470 Rocket 3.5 23:33:44 10° N 23:38:04 80° W 23:42:22 10° S
DMSP B5D1-3 4.4 23:41:18 68° E 23:41:32 69° ESE 23:46:39 10° S
Cosmos 1515 Rocket 3.6 23:38:50 10° SSW 23:43:11 75° W 23:43:50 61° NNW
COSMO-SKYMED 1 4.0 23:39:39 10° N 23:43:38 36° WNW 23:47:36 10° SW
CZ-2D R/B 4.3 23:40:09 10° S 23:43:47 44° W 23:47:28 10° NNW
Lacrosse 5 rocket 2.4 23:42:32 10° WSW 23:45:31 34° NW 23:45:31 34° NW
Okean-O 2.9 23:43:55 10° S 23:48:18 67° WSW 23:52:44 10° NNW
USA 267 3.1 23:47:07 53° E 23:48:37 70° NE 23:55:07 10° NW
Cosmos 1821 Rocket 3.8 23:46:37 10° N 23:52:49 67° E 23:59:05 10° SSE
MOS 1 Rocket 3.8 23:51:15 26° N 23:54:22 74° WNW 23:59:45 10° SSW
